Weather History for Falls City, NE

Change the Weather History Date:

Friday, August 9, 2013

  Actual Average Record
Temperature  
Mean Temperature 74 °F -  
Max Temperature 82 °F 88 °F 100 °F (1980)
Min Temperature 66 °F 63 °F 49 °F (1989)
Cooling Degree Days 9    
Growing Degree Days 24 (Base 50)    
Moisture  
Dew Point 66 °F    
Average Humidity 81    
Maximum Humidity 100    
Minimum Humidity 58    
Precipitation  
Precipitation 0.00 in - - ()
Sea Level Pressure  
Sea Level Pressure 30.04 in    
Wind  
Wind Speed 3 mph (North)    
Max Wind Speed 6 mph    
Max Gust Speed -    
Visibility 10 miles    
Events      
Averages and records for this station are not official NWS values.
T = Trace of Precipitation, MM = Missing Value Source: NWS Daily Summary

Daily Weather History Graph

Daily Weather History Graph

Search for Another Location

Airport:

Trip Planner

Search our weather history database for the weather conditions in past years. The results will help you decide how hot, cold, wet, or windy it might be!

Date:

Astronomy

Aug. 09, 2013 Rise Set
Actual Time 6:28 AM CDT 8:26 PM CDT
Civil Twilight 5:58 AM CDT 8:56 PM CDT
Nautical Twilight 5:22 AM CDT 9:32 PM CDT
Astronomical Twilight 4:43 AM CDT 10:10 PM CDT
Moon 9:15 AM CDT (8/9) 9:36 PM CDT (8/9)
Length of Visible Light 14h 57m
Length of Day
13h 58m
Waxing Crescent, 8% of the Moon is Illuminated
Aug 9
Waxing Crescent
Aug 14
First Quarter
Aug 20
Full
Aug 28
Last Quarter
Sep 5
New

Hourly Weather History & Observations

Time (CDT) Temp. Heat Index Dew Point Humidity Pressure Visibility Wind Dir Wind Speed Gust Speed Precip Events Conditions
12:53 AM 68.0 °F - 66.9 °F 96% 30.01 in 10.0 mi NNW 3.5 mph - N/A   Clear
1:53 AM 66.9 °F - 66.0 °F 97% 30.00 in 10.0 mi North 3.5 mph - N/A   Clear
2:53 AM 68.0 °F - 66.0 °F 93% 30.01 in 10.0 mi South 4.6 mph - N/A   Partly Cloudy
3:53 AM 66.9 °F - 66.0 °F 97% 30.00 in 9.0 mi Calm Calm - N/A   Mostly Cloudy
4:53 AM 66.9 °F - 66.0 °F 97% 30.01 in 10.0 mi Calm Calm - N/A   Scattered Clouds
5:53 AM 66.0 °F - 64.9 °F 96% 30.01 in 10.0 mi NW 3.5 mph - N/A   Clear
6:53 AM 66.0 °F - 66.0 °F 100% 30.02 in 9.0 mi Calm Calm - N/A   Mostly Cloudy
7:53 AM 68.0 °F - 66.0 °F 93% 30.03 in 9.0 mi NNW 3.5 mph - N/A   Overcast
8:53 AM 70.0 °F - 66.9 °F 90% 30.04 in 10.0 mi North 3.5 mph - N/A   Clear
9:53 AM 73.0 °F - 66.9 °F 81% 30.05 in 10.0 mi Calm Calm - N/A   Mostly Cloudy
10:53 AM 75.9 °F - 68.0 °F 76% 30.05 in 10.0 mi NE 5.8 mph - N/A   Clear
11:53 AM 78.1 °F - 68.0 °F 71% 30.06 in 10.0 mi Calm Calm - N/A   Clear
12:53 PM 80.1 °F 82.9 °F 69.1 °F 69% 30.05 in 10.0 mi Variable 5.8 mph - N/A   Clear
1:53 PM 82.0 °F 84.1 °F 66.0 °F 58% 30.05 in 10.0 mi NE 4.6 mph - N/A   Clear
2:53 PM 79.0 °F - 66.0 °F 64% 30.05 in 10.0 mi North 4.6 mph - N/A   Clear
3:53 PM 81.0 °F 82.7 °F 64.9 °F 58% 30.05 in 10.0 mi Calm Calm - N/A   Clear
4:53 PM 80.1 °F 81.9 °F 64.9 °F 60% 30.05 in 10.0 mi Calm Calm - N/A   Clear
5:53 PM 79.0 °F - 68.0 °F 69% 30.04 in 10.0 mi Calm Calm - N/A   Clear
6:53 PM 78.1 °F - 66.9 °F 68% 30.03 in 10.0 mi Calm Calm - N/A   Clear
7:53 PM 77.0 °F - 66.9 °F 71% 30.05 in 10.0 mi Calm Calm - N/A   Mostly Cloudy
8:53 PM 72.0 °F - 66.9 °F 84% 30.06 in 10.0 mi WNW 3.5 mph - N/A   Scattered Clouds
9:53 PM 71.1 °F - 66.9 °F 87% 30.09 in 10.0 mi North 4.6 mph - N/A   Clear
10:53 PM 69.1 °F - 64.9 °F 87% 30.10 in 10.0 mi North 5.8 mph - N/A   Clear
11:53 PM 68.0 °F - 63.0 °F 84% 30.11 in 10.0 mi NNE 5.8 mph - N/A   Clear